Simultaneous Nadir Overpasses (SNOs) Predictions

Prediction of SNOs between LANDSAT-8 and METOP-A Satellite Orbit:

Table of predicted SNOs for the next 14.0 days since TLE Epoch: 4/15/2014
Index Date (LANDSAT-8) Time (LANDSAT-8) Lat,Lon (LANDSAT-8) SZA (LANDSAT-8 ) Date (METOP-A) Time (METOP-A) Lat,Lon (METOP-A) SZA (METOP-A ) Distance(km) Time Diff (sec)
1 04/16/2014 06:29:37 81.05, 120.80 72.88 04/16/2014 06:28:53 81.04, 120.63 72.84 3.14 44
2 04/16/2014 07:19:03 -81.08, -71.22 107.08 04/16/2014 07:19:32 -81.07, -71.22 107.07 0.43 29
3 04/19/2014 02:03:47 81.06,-172.69 71.92 04/19/2014 02:03:17 81.06,-172.54 71.93 2.56 30
4 04/19/2014 02:53:13 -81.08, -4.69 108.04 04/19/2014 02:53:57 -81.07, -4.75 108.03 1.37 44
5 04/21/2014 21:37:57 81.05,-106.40 70.96 04/21/2014 21:37:43 81.04,-106.51 70.94 2.01 14
6 04/21/2014 22:27:23 -81.07, 61.62 109.00 04/21/2014 22:28:22 -81.07, 61.65 108.97 0.65 59
7 04/24/2014 16:22:41 -81.02, 152.09 110.01 04/24/2014 16:21:29 -81.02, 151.99 110.05 1.88 72
8 04/24/2014 17:12:06 81.04, -39.98 70.03 04/24/2014 17:12:07 81.05, -39.80 70.06 3.26 1
9 04/24/2014 18:01:06 -81.58, 137.56 108.55 04/24/2014 18:02:20 -81.30, 137.97 108.65 32.15 74
10 04/27/2014 11:56:48 -81.03,-141.34 110.88 04/27/2014 11:55:52 -81.03,-141.36 110.91 0.46 56




NCC Satellite Simultaneous Nadir Overpasses (SNOs) Prediction Service
